START_TIME,STEP,MOV.,M6,t_acc.,M7,t_acc.,M19,t_acc.,H36,t_acc.
1979-07-13 03:00:27.450 ,1,0,0.,12.0,0.,12.0,0.,12.0,0.,12.0
1979-07-13 03:00:39.450 ,1,0,0.,12.0,0.,12.0,0.,12.0,0.,12.0
1979-07-13 03:00:51.450 ,2,1,0.,12.0,0.,12.0,0.,12.0,0.,12.0
1979-07-13 03:01:03.450 ,2,1,0.,12.0,0.,12.0,0.,12.0,0.,12.0
1979-07-13 03:01:15.450 ,2,0,0.,12.0,0.,12.0,0.,12.0,0.,12.0
1979-07-13 03:01:27.450 ,2,0,0.,12.0,0.,12.0,0.,12.0,0.,12.0
1979-07-13 03:01:39.450 ,3,1,0.,12.0,0.,12.0,0.,12.0,0.,12.0
1979-07-13 03:01:51.450 ,3,1,0.,12.0,0.,12.0,0.,12.0,0.,12.0
1979-07-13 03:02:03.450 ,3,0,0.,12.0,0.,12.0,0.,12.0,0.,12.0
1979-07-13 03:02:15.450 ,3,0,0.,12.0,0.,12.0,0.,12.0,0.,12.0
1979-07-13 03:02:27.450 ,4,1,0.,12.0,0.,12.0,0.,12.0,0.,12.0
1979-07-13 03:02:39.450 ,4,1,0.,12.0,0.,12.0,0.,12.0,0.,12.0
1979-07-13 03:02:51.450 ,4,0,0.,12.0,0.,12.0,0.,12.0,0.,12.0
1979-07-13 03:03:03.450 ,4,0,0.,12.0,0.,12.0,0.,12.0,0.,12.0
1979-07-13 03:03:15.450 ,5,1,1.,12.0,0.,12.0,0.,12.0,0.,12.0
1979-07-13 03:03:27.450 ,5,1,0.,12.0,0.,12.0,0.,12.0,0.,12.0
1979-07-13 03:03:39.450 ,5,0,0.,12.0,0.,12.0,0.,12.0,0.,12.0
1979-07-13 03:03:51.450 ,5,0,0.,12.0,0.,12.0,0.,12.0,1.,12.0
1979-07-13 03:04:03.450 ,6,1,0.,12.0,0.,12.0,0.,12.0,0.,12.0
1979-07-13 03:04:15.450 ,6,1,0.,12.0,0.,12.0,0.,12.0,0.,12.0
1979-07-13 03:04:27.450 ,6,0,0.,12.0,0.,12.0,0.,12.0,0.,12.0
1979-07-13 03:04:39.450 ,6,0,0.,12.0,0.,12.0,0.,12.0,1.,12.0
1979-07-13 03:04:51.450 ,7,1,0.,12.0,0.,12.0,0.,12.0,0.,12.0
1979-07-13 03:05:03.450 ,7,1,0.,12.0,0.,12.0,0.,12.0,0.,12.0
1979-07-13 03:05:15.450 ,7,0,0.,12.0,0.,12.0,0.,12.0,0.,12.0
1979-07-13 03:05:27.450 ,7,0,0.,12.0,0.,12.0,0.,12.0,0.,12.0
1979-07-13 03:05:39.450 ,7,1,0.,12.0,0.,12.0,0.,12.0,0.,12.0
1979-07-13 03:05:51.450 ,7,1,0.,12.0,0.,12.0,0.,12.0,0.,12.0
1979-07-13 03:06:03.450 ,7,0,0.,12.0,0.,12.0,0.,12.0,0.,12.0
1979-07-13 03:06:15.450 ,7,0,0.,12.0,0.,12.0,0.,12.0,0.,12.0
1979-07-13 03:06:27.450 ,6,1,0.,12.0,0.,12.0,0.,12.0,0.,12.0
1979-07-13 03:06:39.450 ,6,1,1.,12.0,0.,12.0,0.,12.0,0.,12.0
1979-07-13 03:06:51.450 ,6,0,2.,12.0,0.,12.0,0.,12.0,0.,12.0
1979-07-13 03:07:03.450 ,6,0,0.,12.0,0.,12.0,0.,12.0,0.,12.0
1979-07-13 03:07:15.450 ,5,1,0.,12.0,0.,12.0,0.,12.0,2.,12.0
1979-07-13 03:07:27.450 ,5,1,2.,12.0,0.,12.0,0.,12.0,0.,12.0
1979-07-13 03:07:39.450 ,5,0,3.,12.0,0.,12.0,0.,12.0,2.,12.0
1979-07-13 03:07:51.450 ,5,0,1.,12.0,0.,12.0,0.,12.0,1.,12.0
1979-07-13 03:08:03.450 ,4,1,1.,12.0,0.,12.0,0.,12.0,0.,12.0
1979-07-13 03:08:15.450 ,4,1,3.,12.0,0.,12.0,0.,12.0,0.,12.0
1979-07-13 03:08:27.450 ,4,0,0.,12.0,0.,12.0,0.,12.0,1.,12.0
1979-07-13 03:08:39.450 ,4,0,4.,12.0,0.,12.0,0.,12.0,0.,12.0
1979-07-13 03:08:51.450 ,3,1,0.,12.0,0.,12.0,0.,12.0,0.,12.0
1979-07-13 03:09:03.450 ,3,1,2.,12.0,0.,12.0,0.,12.0,0.,12.0
1979-07-13 03:09:15.450 ,3,0,0.,12.0,0.,12.0,0.,12.0,0.,12.0
1979-07-13 03:09:27.450 ,3,0,0.,12.0,0.,12.0,0.,12.0,0.,12.0
1979-07-13 03:09:39.450 ,2,1,1.,12.0,0.,12.0,0.,12.0,1.,12.0
1979-07-13 03:09:51.450 ,2,1,0.,12.0,0.,12.0,0.,12.0,1.,12.0
1979-07-13 03:10:03.450 ,2,0,0.,12.0,0.,12.0,0.,12.0,0.,12.0
1979-07-13 03:10:15.450 ,2,0,1.,12.0,0.,12.0,0.,12.0,0.,12.0
1979-07-13 03:10:27.450 ,1,1,1.,12.0,0.,12.0,0.,12.0,0.,12.0
1979-07-13 03:10:39.450 ,1,1,0.,12.0,0.,12.0,0.,12.0,0.,12.0
1979-07-13 03:10:51.450 ,1,0,0.,12.0,0.,12.0,0.,12.0,0.,12.0
1979-07-13 03:11:03.450 ,1,0,1.,12.0,0.,12.0,0.,12.0,0.,12.0
1979-07-13 03:11:15.450 ,0,1,1.,12.0,0.,12.0,0.,12.0,1.,12.0
1979-07-13 03:11:27.450 ,0,1,0.,12.0,0.,12.0,0.,12.0,0.,12.0
1979-07-13 03:11:39.450 ,0,0,0.,12.0,0.,12.0,0.,12.0,0.,12.0
1979-07-13 03:11:51.450 ,0,0,1.,12.0,0.,12.0,0.,12.0,0.,12.0
1979-07-13 03:12:03.450 ,0,1,0.,12.0,0.,12.0,0.,12.0,0.,12.0
1979-07-13 03:12:15.450 ,0,1,0.,12.0,0.,12.0,0.,12.0,0.,12.0
1979-07-13 03:12:27.450 ,0,0,1.,12.0,0.,12.0,0.,12.0,0.,12.0
1979-07-13 03:12:39.450 ,0,0,0.,12.0,0.,12.0,0.,12.0,0.,12.0
1979-07-13 03:12:51.450 ,1,1,1.,12.0,0.,12.0,0.,12.0,0.,12.0
1979-07-13 03:13:03.450 ,1,1,2.,12.0,0.,12.0,0.,12.0,1.,12.0
1979-07-13 03:13:15.450 ,1,0,2.,12.0,0.,12.0,0.,12.0,0.,12.0
1979-07-13 03:13:27.450 ,1,0,0.,12.0,0.,12.0,0.,12.0,1.,12.0
1979-07-13 03:13:39.450 ,2,1,0.,12.0,0.,12.0,0.,12.0,0.,12.0
1979-07-13 03:13:51.450 ,2,1,1.,12.0,0.,12.0,0.,12.0,0.,12.0
1979-07-13 03:14:03.450 ,2,0,1.,12.0,0.,12.0,0.,12.0,1.,12.0
1979-07-13 03:14:15.450 ,2,0,0.,12.0,0.,12.0,0.,12.0,1.,12.0
1979-07-13 03:14:27.450 ,3,1,0.,12.0,0.,12.0,0.,12.0,1.,12.0
1979-07-13 03:14:39.450 ,3,1,4.,12.0,0.,12.0,0.,12.0,0.,12.0
1979-07-13 03:14:51.450 ,3,0,1.,12.0,0.,12.0,0.,12.0,0.,12.0
1979-07-13 03:15:03.450 ,3,0,3.,12.0,0.,12.0,0.,12.0,0.,12.0
1979-07-13 03:15:15.450 ,4,1,1.,12.0,0.,12.0,0.,12.0,1.,12.0
1979-07-13 03:15:27.450 ,4,1,2.,12.0,0.,12.0,0.,12.0,1.,12.0
1979-07-13 03:15:39.450 ,4,0,1.,12.0,0.,12.0,0.,12.0,1.,12.0
1979-07-13 03:15:51.450 ,4,0,2.,12.0,0.,12.0,0.,12.0,3.,12.0
1979-07-13 03:16:03.450 ,5,1,0.,12.0,0.,12.0,0.,12.0,0.,12.0
1979-07-13 03:16:15.450 ,5,1,1.,12.0,0.,12.0,0.,12.0,2.,12.0
1979-07-13 03:16:27.450 ,5,0,2.,12.0,0.,12.0,0.,12.0,0.,12.0
1979-07-13 03:16:39.450 ,5,0,1.,12.0,0.,12.0,0.,12.0,2.,12.0
1979-07-13 03:16:51.450 ,6,1,2.,12.0,0.,12.0,0.,12.0,1.,12.0
1979-07-13 03:17:03.450 ,6,1,2.,12.0,0.,12.0,0.,12.0,0.,12.0
1979-07-13 03:17:15.450 ,6,0,2.,12.0,0.,12.0,0.,12.0,1.,12.0
1979-07-13 03:17:27.450 ,6,0,2.,12.0,0.,12.0,0.,12.0,0.,12.0
1979-07-13 03:17:39.450 ,7,1,1.,12.0,0.,12.0,0.,12.0,0.,12.0
1979-07-13 03:17:51.450 ,7,1,0.,12.0,0.,12.0,0.,12.0,0.,12.0
1979-07-13 03:18:03.450 ,7,0,0.,12.0,0.,12.0,0.,12.0,0.,12.0
1979-07-13 03:18:15.450 ,7,0,0.,12.0,0.,12.0,0.,12.0,0.,12.0
1979-07-13 03:18:27.450 ,7,1,0.,12.0,0.,12.0,0.,12.0,0.,12.0
1979-07-13 03:18:39.450 ,7,1,0.,12.0,0.,12.0,0.,12.0,0.,12.0
1979-07-13 03:18:51.450 ,7,0,0.,12.0,0.,12.0,0.,12.0,0.,12.0
1979-07-13 03:19:03.450 ,7,0,0.,12.0,0.,12.0,0.,12.0,0.,12.0
1979-07-13 03:19:15.450 ,6,1,0.,12.0,0.,12.0,0.,12.0,0.,12.0
1979-07-13 03:19:27.450 ,6,1,3.,12.0,0.,12.0,0.,12.0,0.,12.0
1979-07-13 03:19:39.450 ,6,0,5.,12.0,0.,12.0,0.,12.0,1.,12.0
1979-07-13 03:19:51.450 ,6,0,2.,12.0,0.,12.0,0.,12.0,2.,12.0
1979-07-13 03:20:03.450 ,5,1,5.,12.0,0.,12.0,0.,12.0,3.,12.0
1979-07-13 03:20:15.450 ,5,1,2.,12.0,0.,12.0,0.,12.0,1.,12.0
1979-07-13 03:20:27.450 ,5,0,5.,12.0,0.,12.0,0.,12.0,4.,12.0
1979-07-13 03:20:39.450 ,5,0,5.,12.0,0.,12.0,0.,12.0,0.,12.0
1979-07-13 03:20:51.450 ,4,1,3.,12.0,0.,12.0,0.,12.0,2.,12.0
1979-07-13 03:21:03.450 ,4,1,0.,12.0,0.,12.0,0.,12.0,1.,12.0
1979-07-13 03:21:15.450 ,4,0,2.,12.0,0.,12.0,0.,12.0,0.,12.0
1979-07-13 03:21:27.450 ,4,0,3.,12.0,0.,12.0,0.,12.0,1.,12.0
1979-07-13 03:21:39.450 ,3,1,2.,12.0,0.,12.0,0.,12.0,0.,12.0
1979-07-13 03:21:51.450 ,3,1,3.,12.0,0.,12.0,0.,12.0,0.,12.0
1979-07-13 03:22:03.450 ,3,0,1.,12.0,0.,12.0,0.,12.0,1.,12.0
1979-07-13 03:22:15.450 ,3,0,2.,12.0,0.,12.0,0.,12.0,2.,12.0
1979-07-13 03:22:27.450 ,2,1,4.,12.0,0.,12.0,0.,12.0,0.,12.0
1979-07-13 03:22:39.450 ,2,1,4.,12.0,0.,12.0,0.,12.0,0.,12.0
1979-07-13 03:22:51.450 ,2,0,3.,12.0,0.,12.0,0.,12.0,2.,12.0
1979-07-13 03:23:03.450 ,2,0,3.,12.0,0.,12.0,0.,12.0,0.,12.0
1979-07-13 03:23:15.450 ,1,1,5.,12.0,0.,12.0,0.,12.0,0.,12.0
1979-07-13 03:23:27.450 ,1,1,1.,12.0,0.,12.0,0.,12.0,2.,12.0
1979-07-13 03:23:39.450 ,1,0,1.,12.0,0.,12.0,0.,12.0,2.,12.0
1979-07-13 03:23:51.450 ,1,0,1.,12.0,0.,12.0,0.,12.0,2.,12.0
1979-07-13 03:24:03.450 ,0,0,7.,12.0,0.,12.0,0.,12.0,0.,12.0
1979-07-13 03:24:15.450 ,0,0,1.,12.0,0.,12.0,0.,12.0,1.,12.0
1979-07-13 03:24:27.450 ,0,0,,0,,0,,0,,0
1979-07-13 03:24:39.450 ,0,0,,0,,0,,0,,0
1979-07-13 03:24:51.450 ,0,1,2.,12.0,0.,12.0,0.,12.0,1.,12.0
1979-07-13 03:25:03.450 ,0,1,3.,12.0,0.,12.0,0.,12.0,0.,12.0
1979-07-13 03:25:15.450 ,0,0,0.,12.0,0.,12.0,0.,12.0,0.,12.0
1979-07-13 03:25:27.450 ,0,0,1.,12.0,0.,12.0,0.,12.0,0.,12.0
1979-07-13 03:25:39.450 ,1,1,0.,12.0,0.,12.0,0.,12.0,1.,12.0
1979-07-13 03:25:51.450 ,1,1,5.,12.0,0.,12.0,0.,12.0,1.,12.0
1979-07-13 03:26:03.450 ,1,0,3.,12.0,0.,12.0,0.,12.0,0.,12.0
1979-07-13 03:26:15.450 ,1,0,1.,12.0,0.,12.0,0.,12.0,2.,12.0
1979-07-13 03:26:27.450 ,2,1,2.,12.0,0.,12.0,0.,12.0,0.,12.0
1979-07-13 03:26:39.450 ,2,1,2.,12.0,0.,12.0,0.,12.0,2.,12.0
1979-07-13 03:26:51.450 ,2,0,0.,12.0,0.,12.0,0.,12.0,0.,12.0
1979-07-13 03:27:03.450 ,2,0,3.,12.0,0.,12.0,0.,12.0,3.,12.0
1979-07-13 03:27:15.450 ,3,1,1.,12.0,0.,12.0,0.,12.0,2.,12.0
1979-07-13 03:27:27.450 ,3,1,4.,12.0,0.,12.0,0.,12.0,1.,12.0
1979-07-13 03:27:39.450 ,3,0,0.,12.0,0.,12.0,0.,12.0,0.,12.0
1979-07-13 03:27:51.450 ,3,0,2.,12.0,0.,12.0,0.,12.0,0.,12.0
1979-07-13 03:28:03.450 ,4,1,2.,12.0,0.,12.0,0.,12.0,1.,12.0
1979-07-13 03:28:15.450 ,4,1,6.,12.0,0.,12.0,0.,12.0,0.,12.0
1979-07-13 03:28:27.450 ,4,0,2.,12.0,0.,12.0,0.,12.0,3.,12.0
1979-07-13 03:28:39.450 ,4,0,0.,12.0,0.,12.0,0.,12.0,0.,12.0
1979-07-13 03:28:51.450 ,5,1,4.,12.0,0.,12.0,0.,12.0,0.,12.0
1979-07-13 03:29:03.450 ,5,1,2.,12.0,0.,12.0,0.,12.0,2.,12.0
1979-07-13 03:29:15.450 ,5,0,4.,12.0,0.,12.0,0.,12.0,3.,12.0
1979-07-13 03:29:27.450 ,5,0,2.,12.0,0.,12.0,0.,12.0,3.,12.0
1979-07-13 03:29:39.450 ,6,1,2.,12.0,0.,12.0,0.,12.0,1.,12.0
1979-07-13 03:29:51.450 ,6,1,0.,12.0,0.,12.0,0.,12.0,2.,12.0
1979-07-13 03:30:03.450 ,6,0,3.,12.0,0.,12.0,0.,12.0,0.,12.0
1979-07-13 03:30:15.450 ,6,0,0.,12.0,0.,12.0,0.,12.0,0.,12.0
1979-07-13 03:30:27.450 ,7,0,2.,12.0,0.,12.0,0.,12.0,2.,12.0
1979-07-13 03:30:39.450 ,7,0,1.,12.0,0.,12.0,0.,12.0,0.,12.0
1979-07-13 03:30:51.450 ,7,0,0.,12.0,0.,12.0,0.,12.0,0.,12.0
1979-07-13 03:31:03.450 ,7,0,0.,12.0,0.,12.0,0.,12.0,0.,12.0
1979-07-13 03:31:15.450 ,4,1,3.,12.0,0.,12.0,0.,12.0,0.,12.0
1979-07-13 03:31:27.450 ,4,1,7.,12.0,0.,12.0,0.,12.0,1.,12.0
1979-07-13 03:31:39.450 ,0,1,2.,12.0,0.,12.0,0.,12.0,1.,12.0
1979-07-13 03:31:51.450 ,0,1,0.,12.0,0.,12.0,0.,12.0,0.,12.0
1979-07-13 03:32:03.450 ,3,1,0.,12.0,0.,12.0,0.,12.0,1.,12.0
1979-07-13 03:32:15.450 ,3,1,3.,12.0,0.,12.0,0.,12.0,0.,12.0
1979-07-13 03:32:27.450 ,7,1,1.,12.0,0.,12.0,0.,12.0,0.,12.0
1979-07-13 03:32:39.450 ,7,1,2.,12.0,0.,12.0,0.,12.0,0.,12.0
1979-07-13 03:32:51.450 ,4,1,0.,12.0,0.,12.0,0.,12.0,0.,12.0
1979-07-13 03:33:03.450 ,4,1,8.,12.0,0.,12.0,0.,12.0,3.,12.0
1979-07-13 03:33:15.450 ,0,1,5.,12.0,0.,12.0,0.,12.0,2.,12.0
1979-07-13 03:33:27.450 ,0,1,1.,12.0,0.,12.0,0.,12.0,1.,12.0
1979-07-13 03:33:39.450 ,3,1,0.,12.0,0.,12.0,0.,12.0,0.,12.0
1979-07-13 03:33:51.450 ,3,1,0.,12.0,0.,12.0,0.,12.0,1.,12.0
1979-07-13 03:34:03.450 ,7,1,3.,12.0,0.,12.0,0.,12.0,0.,12.0
1979-07-13 03:34:15.450 ,7,1,2.,12.0,0.,12.0,0.,12.0,1.,12.0
1979-07-13 03:34:27.450 ,4,1,2.,12.0,0.,12.0,0.,12.0,1.,12.0
1979-07-13 03:34:39.450 ,4,1,5.,12.0,0.,12.0,0.,12.0,2.,12.0
1979-07-13 03:34:51.450 ,0,1,5.,12.0,0.,12.0,0.,12.0,2.,12.0
1979-07-13 03:35:03.450 ,0,1,2.,12.0,0.,12.0,0.,12.0,1.,12.0
1979-07-13 03:35:15.450 ,3,1,2.,12.0,0.,12.0,0.,12.0,0.,12.0
1979-07-13 03:35:27.450 ,3,1,3.,12.0,0.,12.0,0.,12.0,0.,12.0
1979-07-13 03:35:39.450 ,7,1,3.,12.0,0.,12.0,0.,12.0,2.,12.0
1979-07-13 03:35:51.450 ,7,1,3.,12.0,0.,12.0,0.,12.0,1.,12.0
1979-07-13 03:36:03.450 ,4,1,0.,12.0,0.,12.0,0.,12.0,0.,12.0
1979-07-13 03:36:15.450 ,4,1,4.,12.0,0.,12.0,0.,12.0,1.,12.0
1979-07-13 03:36:27.450 ,0,1,6.,12.0,0.,12.0,0.,12.0,1.,12.0
1979-07-13 03:36:39.450 ,0,1,1.,12.0,0.,12.0,0.,12.0,0.,12.0
1979-07-13 03:36:51.450 ,3,1,1.,12.0,0.,12.0,0.,12.0,1.,12.0
1979-07-13 03:37:03.450 ,3,1,2.,12.0,0.,12.0,0.,12.0,0.,12.0
1979-07-13 03:37:15.450 ,7,1,5.,12.0,0.,12.0,0.,12.0,0.,12.0
1979-07-13 03:37:27.450 ,7,1,3.,12.0,0.,12.0,0.,12.0,0.,12.0
1979-07-13 03:37:39.450 ,4,1,0.,12.0,0.,12.0,0.,12.0,0.,12.0
1979-07-13 03:37:51.450 ,4,1,2.,12.0,0.,12.0,0.,12.0,2.,12.0
1979-07-13 03:38:03.450 ,0,1,1.,12.0,0.,12.0,0.,12.0,0.,12.0
1979-07-13 03:38:15.450 ,0,1,3.,12.0,0.,12.0,0.,12.0,0.,12.0
1979-07-13 03:38:27.450 ,3,1,2.,12.0,0.,12.0,0.,12.0,0.,12.0
1979-07-13 03:38:39.450 ,3,1,1.,12.0,0.,12.0,0.,12.0,0.,12.0
1979-07-13 03:38:51.450 ,7,1,1.,12.0,0.,12.0,0.,12.0,3.,12.0
1979-07-13 03:39:03.450 ,7,1,0.,12.0,0.,12.0,0.,12.0,0.,12.0
1979-07-13 03:39:15.450 ,4,1,0.,12.0,0.,12.0,0.,12.0,0.,12.0
1979-07-13 03:39:27.450 ,4,1,2.,12.0,0.,12.0,0.,12.0,3.,12.0
1979-07-13 03:39:39.450 ,0,1,1.,12.0,0.,12.0,0.,12.0,1.,12.0
1979-07-13 03:39:51.450 ,0,1,0.,12.0,0.,12.0,0.,12.0,2.,12.0
1979-07-13 03:40:03.450 ,3,1,1.,12.0,0.,12.0,0.,12.0,1.,12.0
1979-07-13 03:40:15.450 ,3,1,2.,12.0,0.,12.0,0.,12.0,1.,12.0
1979-07-13 03:40:27.450 ,7,1,5.,12.0,0.,12.0,0.,12.0,1.,12.0
1979-07-13 03:40:39.450 ,7,1,1.,12.0,0.,12.0,0.,12.0,1.,12.0
1979-07-13 03:40:51.450 ,4,1,3.,12.0,0.,12.0,0.,12.0,1.,12.0
1979-07-13 03:41:03.450 ,4,1,2.,12.0,0.,12.0,0.,12.0,1.,12.0
1979-07-13 03:41:15.450 ,0,1,1.,12.0,0.,12.0,0.,12.0,1.,12.0
1979-07-13 03:41:27.450 ,0,1,2.,12.0,0.,12.0,0.,12.0,1.,12.0
1979-07-13 03:41:39.450 ,0,0,2.,12.0,0.,12.0,0.,12.0,0.,12.0
1979-07-13 03:41:51.450 ,0,0,3.,12.0,0.,12.0,0.,12.0,1.,12.0
1979-07-13 03:42:03.450 ,0,0,2.,12.0,0.,12.0,0.,12.0,0.,12.0
1979-07-13 03:42:15.450 ,0,0,2.,12.0,0.,12.0,0.,12.0,1.,12.0
1979-07-13 03:42:27.450 ,5,1,0.,12.0,0.,12.0,0.,12.0,0.,12.0
1979-07-13 03:42:39.450 ,5,1,1.,12.0,0.,12.0,0.,12.0,0.,12.0
1979-07-13 03:42:51.450 ,5,0,4.,12.0,0.,12.0,0.,12.0,6.,12.0
1979-07-13 03:43:03.450 ,5,0,7.,12.0,0.,12.0,0.,12.0,2.,12.0
1979-07-13 03:43:15.450 ,4,1,3.,12.0,0.,12.0,0.,12.0,2.,12.0
1979-07-13 03:43:27.450 ,4,1,1.,12.0,0.,12.0,0.,12.0,1.,12.0
1979-07-13 03:43:39.450 ,4,0,0.,12.0,0.,12.0,0.,12.0,0.,12.0
1979-07-13 03:43:51.450 ,4,0,7.,12.0,0.,12.0,0.,12.0,0.,12.0
1979-07-13 03:44:03.450 ,3,1,2.,12.0,0.,12.0,0.,12.0,2.,12.0
1979-07-13 03:44:15.450 ,3,1,3.,12.0,0.,12.0,0.,12.0,0.,12.0
1979-07-13 03:44:27.450 ,3,0,1.,12.0,0.,12.0,0.,12.0,0.,12.0
1979-07-13 03:44:39.450 ,3,0,3.,12.0,0.,12.0,0.,12.0,0.,12.0
1979-07-13 03:44:51.450 ,2,1,4.,12.0,0.,12.0,0.,12.0,0.,12.0
1979-07-13 03:45:03.450 ,2,1,4.,12.0,0.,12.0,0.,12.0,1.,12.0
1979-07-13 03:45:15.450 ,2,0,2.,12.0,0.,12.0,0.,12.0,2.,12.0
1979-07-13 03:45:27.450 ,2,0,0.,12.0,0.,12.0,0.,12.0,2.,12.0
1979-07-13 03:45:39.450 ,1,1,2.,12.0,0.,12.0,0.,12.0,2.,12.0
1979-07-13 03:45:51.450 ,1,1,2.,12.0,0.,12.0,0.,12.0,0.,12.0
1979-07-13 03:46:03.450 ,1,0,1.,12.0,0.,12.0,0.,12.0,2.,12.0
1979-07-13 03:46:15.450 ,1,0,1.,12.0,0.,12.0,0.,12.0,1.,12.0
1979-07-13 03:46:27.450 ,0,1,1.,12.0,0.,12.0,0.,12.0,1.,12.0
1979-07-13 03:46:39.450 ,0,1,0.,12.0,0.,12.0,0.,12.0,3.,12.0
1979-07-13 03:46:51.450 ,0,0,1.,12.0,0.,12.0,0.,12.0,1.,12.0
1979-07-13 03:47:03.450 ,0,0,0.,12.0,0.,12.0,0.,12.0,0.,12.0
1979-07-13 03:47:15.450 ,0,1,1.,12.0,0.,12.0,0.,12.0,0.,12.0
1979-07-13 03:47:27.450 ,0,1,0.,12.0,0.,12.0,0.,12.0,1.,12.0
1979-07-13 03:47:39.450 ,0,0,0.,12.0,0.,12.0,0.,12.0,0.,12.0
1979-07-13 03:47:51.450 ,0,0,0.,12.0,0.,12.0,0.,12.0,0.,12.0
1979-07-13 03:48:03.450 ,1,1,4.,12.0,0.,12.0,0.,12.0,0.,12.0
1979-07-13 03:48:15.450 ,1,1,2.,12.0,0.,12.0,0.,12.0,2.,12.0
1979-07-13 03:48:27.450 ,1,0,1.,12.0,0.,12.0,0.,12.0,0.,12.0
1979-07-13 03:48:39.450 ,1,0,5.,12.0,0.,12.0,0.,12.0,0.,12.0
1979-07-13 03:48:51.450 ,2,1,1.,12.0,0.,12.0,0.,12.0,1.,12.0
1979-07-13 03:49:03.450 ,2,1,2.,12.0,0.,12.0,0.,12.0,1.,12.0
1979-07-13 03:49:15.450 ,2,0,3.,12.0,0.,12.0,0.,12.0,2.,12.0
1979-07-13 03:49:27.450 ,2,0,4.,12.0,0.,12.0,0.,12.0,0.,12.0
1979-07-13 03:49:39.450 ,3,1,3.,12.0,0.,12.0,0.,12.0,0.,12.0
1979-07-13 03:49:51.450 ,3,1,2.,12.0,0.,12.0,0.,12.0,1.,12.0
1979-07-13 03:50:03.450 ,3,0,6.,12.0,0.,12.0,0.,12.0,1.,12.0
1979-07-13 03:50:15.450 ,3,0,2.,12.0,0.,12.0,0.,12.0,0.,12.0
1979-07-13 03:50:27.450 ,4,1,3.,12.0,0.,12.0,0.,12.0,0.,12.0
1979-07-13 03:50:39.450 ,4,1,1.,12.0,0.,12.0,0.,12.0,1.,12.0
1979-07-13 03:50:51.450 ,4,0,0.,12.0,0.,12.0,0.,12.0,2.,12.0
1979-07-13 03:51:03.450 ,4,0,0.,12.0,0.,12.0,0.,12.0,2.,12.0
1979-07-13 03:51:15.450 ,5,1,5.,12.0,0.,12.0,0.,12.0,2.,12.0
1979-07-13 03:51:27.450 ,5,1,2.,12.0,0.,12.0,0.,12.0,0.,12.0
1979-07-13 03:51:39.450 ,5,0,1.,12.0,0.,12.0,0.,12.0,3.,12.0
1979-07-13 03:51:51.450 ,5,0,1.,12.0,0.,12.0,0.,12.0,1.,12.0
1979-07-13 03:52:03.450 ,6,1,6.,12.0,0.,12.0,0.,12.0,0.,12.0
1979-07-13 03:52:15.450 ,6,1,1.,12.0,0.,12.0,0.,12.0,1.,12.0
1979-07-13 03:52:27.450 ,6,0,0.,12.0,0.,12.0,0.,12.0,2.,12.0
1979-07-13 03:52:39.450 ,6,0,0.,12.0,0.,12.0,0.,12.0,0.,12.0
1979-07-13 03:52:51.450 ,7,1,2.,12.0,0.,12.0,0.,12.0,0.,12.0
1979-07-13 03:53:03.450 ,7,1,0.,12.0,0.,12.0,0.,12.0,0.,12.0
1979-07-13 03:53:15.450 ,7,0,1.,12.0,0.,12.0,0.,12.0,0.,12.0
1979-07-13 03:53:27.450 ,7,0,0.,12.0,0.,12.0,0.,12.0,0.,12.0
1979-07-13 03:53:39.450 ,7,1,0.,12.0,0.,12.0,0.,12.0,0.,12.0
1979-07-13 03:53:51.450 ,7,1,0.,12.0,0.,12.0,0.,12.0,0.,12.0
1979-07-13 03:54:03.450 ,7,0,0.,12.0,0.,12.0,0.,12.0,0.,12.0
1979-07-13 03:54:15.450 ,7,0,0.,12.0,0.,12.0,0.,12.0,0.,12.0
1979-07-13 03:54:27.450 ,6,1,0.,12.0,0.,12.0,0.,12.0,0.,12.0
1979-07-13 03:54:39.450 ,6,1,2.,12.0,0.,12.0,0.,12.0,0.,12.0
1979-07-13 03:54:51.450 ,6,0,1.,12.0,0.,12.0,0.,12.0,0.,12.0
1979-07-13 03:55:03.450 ,6,0,2.,12.0,0.,12.0,0.,12.0,1.,12.0
1979-07-13 03:55:15.450 ,5,1,0.,12.0,0.,12.0,0.,12.0,1.,12.0
1979-07-13 03:55:27.450 ,5,1,5.,12.0,0.,12.0,0.,12.0,1.,12.0
1979-07-13 03:55:39.450 ,5,0,2.,12.0,0.,12.0,0.,12.0,1.,12.0
1979-07-13 03:55:51.450 ,5,0,4.,12.0,0.,12.0,0.,12.0,2.,12.0
1979-07-13 03:56:03.450 ,4,1,5.,12.0,0.,12.0,0.,12.0,1.,12.0
1979-07-13 03:56:15.450 ,4,1,2.,12.0,0.,12.0,0.,12.0,0.,12.0
1979-07-13 03:56:27.450 ,4,0,4.,12.0,0.,12.0,0.,12.0,0.,12.0
1979-07-13 03:56:39.450 ,4,0,2.,12.0,0.,12.0,0.,12.0,0.,12.0
1979-07-13 03:56:51.450 ,3,1,1.,12.0,0.,12.0,0.,12.0,0.,12.0
1979-07-13 03:57:03.450 ,3,1,5.,12.0,0.,12.0,0.,12.0,0.,12.0
1979-07-13 03:57:15.450 ,3,0,1.,12.0,0.,12.0,0.,12.0,1.,12.0
1979-07-13 03:57:27.450 ,3,0,1.,12.0,0.,12.0,0.,12.0,1.,12.0
1979-07-13 03:57:39.450 ,2,1,2.,12.0,0.,12.0,0.,12.0,0.,12.0
1979-07-13 03:57:51.450 ,2,1,3.,12.0,0.,12.0,0.,12.0,0.,12.0
1979-07-13 03:58:03.450 ,2,0,0.,12.0,0.,12.0,0.,12.0,0.,12.0
1979-07-13 03:58:15.450 ,2,0,0.,12.0,0.,12.0,0.,12.0,0.,12.0
1979-07-13 03:58:27.450 ,1,1,0.,12.0,0.,12.0,0.,12.0,0.,12.0
1979-07-13 03:58:39.450 ,1,1,0.,12.0,0.,12.0,0.,12.0,1.,12.0
1979-07-13 03:58:51.450 ,1,0,2.,12.0,0.,12.0,0.,12.0,0.,12.0
1979-07-13 03:59:03.450 ,1,0,0.,12.0,0.,12.0,0.,12.0,0.,12.0
1979-07-13 03:59:15.450 ,0,1,0.,12.0,0.,12.0,0.,12.0,1.,12.0
1979-07-13 03:59:27.450 ,0,1,1.,12.0,0.,12.0,0.,12.0,0.,12.0
1979-07-13 03:59:39.450 ,0,0,0.,12.0,0.,12.0,0.,12.0,0.,12.0
1979-07-13 03:59:51.450 ,0,0,0.,12.0,0.,12.0,0.,12.0,0.,12.0
1979-07-13 04:00:03.450 ,0,1,1.,12.0,0.,12.0,0.,12.0,0.,12.0
1979-07-13 04:00:15.450 ,0,1,0.,12.0,0.,12.0,0.,12.0,0.,12.0
1979-07-13 04:00:27.450 ,0,0,0.,12.0,0.,12.0,0.,12.0,0.,12.0
1979-07-13 04:00:39.450 ,0,0,0.,12.0,0.,12.0,0.,12.0,0.,12.0
1979-07-13 04:00:51.450 ,1,1,1.,12.0,0.,12.0,0.,12.0,0.,12.0
1979-07-13 04:01:03.450 ,1,1,0.,12.0,0.,12.0,0.,12.0,0.,12.0
1979-07-13 04:01:15.450 ,1,0,0.,12.0,0.,12.0,0.,12.0,0.,12.0
1979-07-13 04:01:27.450 ,1,0,0.,12.0,0.,12.0,0.,12.0,0.,12.0
1979-07-13 04:01:39.450 ,2,1,0.,12.0,0.,12.0,0.,12.0,0.,12.0
1979-07-13 04:01:51.450 ,2,1,0.,12.0,0.,12.0,0.,12.0,0.,12.0
1979-07-13 04:02:03.450 ,2,0,1.,12.0,0.,12.0,0.,12.0,0.,12.0
1979-07-13 04:02:15.450 ,2,0,1.,12.0,0.,12.0,0.,12.0,0.,12.0
1979-07-13 04:02:27.450 ,3,1,1.,12.0,0.,12.0,0.,12.0,0.,12.0
1979-07-13 04:02:39.450 ,3,1,0.,12.0,0.,12.0,0.,12.0,0.,12.0
1979-07-13 04:02:51.450 ,3,0,1.,12.0,0.,12.0,0.,12.0,1.,12.0
1979-07-13 04:03:03.450 ,3,0,1.,12.0,0.,12.0,0.,12.0,0.,12.0
1979-07-13 04:03:15.450 ,4,1,2.,12.0,0.,12.0,0.,12.0,2.,12.0
1979-07-13 04:03:27.450 ,4,1,3.,12.0,0.,12.0,0.,12.0,0.,12.0
1979-07-13 04:03:39.450 ,4,0,1.,12.0,0.,12.0,0.,12.0,0.,12.0
1979-07-13 04:03:51.450 ,4,0,0.,12.0,0.,12.0,0.,12.0,2.,12.0
1979-07-13 04:04:03.450 ,5,1,0.,12.0,0.,12.0,0.,12.0,0.,12.0
1979-07-13 04:04:15.450 ,5,1,1.,12.0,0.,12.0,0.,12.0,0.,12.0
1979-07-13 04:04:27.450 ,5,0,1.,12.0,0.,12.0,0.,12.0,0.,12.0
1979-07-13 04:04:39.450 ,5,0,0.,12.0,0.,12.0,0.,12.0,1.,12.0
1979-07-13 04:04:51.450 ,6,1,1.,12.0,0.,12.0,0.,12.0,0.,12.0
1979-07-13 04:05:03.450 ,6,1,0.,12.0,0.,12.0,0.,12.0,0.,12.0
1979-07-13 04:05:15.450 ,6,0,0.,12.0,0.,12.0,0.,12.0,0.,12.0
1979-07-13 04:05:27.450 ,6,0,2.,12.0,0.,12.0,0.,12.0,1.,12.0
1979-07-13 04:05:39.450 ,7,1,1.,12.0,0.,12.0,0.,12.0,1.,12.0
1979-07-13 04:05:51.450 ,7,1,0.,12.0,0.,12.0,0.,12.0,0.,12.0
1979-07-13 04:06:03.450 ,7,0,0.,12.0,0.,12.0,0.,12.0,0.,12.0
1979-07-13 04:06:15.450 ,7,0,0.,12.0,0.,12.0,0.,12.0,0.,12.0
1979-07-13 04:06:27.450 ,7,1,0.,12.0,0.,12.0,0.,12.0,0.,12.0
1979-07-13 04:06:39.450 ,7,1,0.,12.0,0.,12.0,0.,12.0,0.,12.0
1979-07-13 04:06:51.450 ,7,0,0.,12.0,0.,12.0,0.,12.0,0.,12.0
1979-07-13 04:07:03.450 ,7,0,0.,12.0,0.,12.0,0.,12.0,0.,12.0
1979-07-13 04:07:15.450 ,6,1,0.,12.0,0.,12.0,0.,12.0,0.,12.0
1979-07-13 04:07:27.450 ,6,1,0.,12.0,0.,12.0,0.,12.0,1.,12.0
1979-07-13 04:07:39.450 ,6,0,1.,12.0,0.,12.0,0.,12.0,1.,12.0
1979-07-13 04:07:51.450 ,6,0,1.,12.0,0.,12.0,0.,12.0,0.,12.0
1979-07-13 04:08:03.450 ,5,1,2.,12.0,0.,12.0,0.,12.0,0.,12.0
1979-07-13 04:08:15.450 ,5,1,0.,12.0,0.,12.0,0.,12.0,0.,12.0
1979-07-13 04:08:27.450 ,5,0,2.,12.0,0.,12.0,0.,12.0,0.,12.0
1979-07-13 04:08:39.450 ,5,0,3.,12.0,0.,12.0,0.,12.0,0.,12.0
1979-07-13 04:08:51.450 ,4,1,0.,12.0,0.,12.0,0.,12.0,1.,12.0
1979-07-13 04:09:03.450 ,4,1,0.,12.0,0.,12.0,0.,12.0,1.,12.0
1979-07-13 04:09:15.450 ,4,0,2.,12.0,0.,12.0,0.,12.0,1.,12.0
1979-07-13 04:09:27.450 ,4,0,0.,12.0,0.,12.0,0.,12.0,0.,12.0
1979-07-13 04:09:39.450 ,3,1,1.,12.0,0.,12.0,0.,12.0,0.,12.0
1979-07-13 04:09:51.450 ,3,1,1.,12.0,0.,12.0,0.,12.0,3.,12.0
1979-07-13 04:10:03.450 ,3,0,1.,12.0,0.,12.0,0.,12.0,0.,12.0
1979-07-13 04:10:15.450 ,3,0,2.,12.0,0.,12.0,0.,12.0,0.,12.0
1979-07-13 04:10:27.450 ,2,1,0.,12.0,0.,12.0,0.,12.0,1.,12.0
1979-07-13 04:10:39.450 ,2,1,0.,12.0,0.,12.0,0.,12.0,1.,12.0
1979-07-13 04:10:51.450 ,2,0,0.,12.0,0.,12.0,0.,12.0,1.,12.0
1979-07-13 04:11:03.450 ,2,0,1.,12.0,0.,12.0,0.,12.0,2.,12.0
1979-07-13 04:11:15.450 ,1,1,4.,12.0,0.,12.0,0.,12.0,1.,12.0
1979-07-13 04:11:27.450 ,1,1,0.,12.0,0.,12.0,0.,12.0,0.,12.0
1979-07-13 04:11:39.450 ,1,0,0.,12.0,0.,12.0,0.,12.0,0.,12.0
1979-07-13 04:11:51.450 ,1,0,0.,12.0,0.,12.0,0.,12.0,0.,12.0
1979-07-13 04:12:03.450 ,0,1,0.,12.0,0.,12.0,0.,12.0,0.,12.0
1979-07-13 04:12:15.450 ,0,1,0.,12.0,0.,12.0,0.,12.0,0.,12.0
1979-07-13 04:12:27.450 ,0,0,0.,12.0,0.,12.0,0.,12.0,1.,12.0
1979-07-13 04:12:39.450 ,0,0,0.,12.0,0.,12.0,0.,12.0,0.,12.0
1979-07-13 04:12:51.450 ,0,1,0.,12.0,0.,12.0,0.,12.0,0.,12.0
1979-07-13 04:13:03.450 ,0,1,1.,12.0,0.,12.0,0.,12.0,0.,12.0
1979-07-13 04:13:15.450 ,0,0,0.,12.0,0.,12.0,0.,12.0,0.,12.0
1979-07-13 04:13:27.450 ,0,0,0.,12.0,0.,12.0,0.,12.0,1.,12.0
1979-07-13 04:13:39.450 ,1,1,1.,12.0,0.,12.0,0.,12.0,0.,12.0
1979-07-13 04:13:51.450 ,1,1,3.,12.0,0.,12.0,0.,12.0,0.,12.0
1979-07-13 04:14:03.450 ,1,0,1.,12.0,0.,12.0,0.,12.0,0.,12.0
1979-07-13 04:14:15.450 ,1,0,0.,12.0,0.,12.0,0.,12.0,1.,12.0
1979-07-13 04:14:27.450 ,0,0,,0,,0,,0,,0
1979-07-13 04:14:39.450 ,0,0,,0,,0,,0,,0
1979-07-13 04:14:51.450 ,0,0,,0,,0,,0,,0
1979-07-13 04:15:03.450 ,0,0,,0,,0,,0,,0
1979-07-13 04:50:04.050 ,0,0,0.,12.0,0.,12.0,0.,12.0,0.,12.0
1979-07-13 04:50:16.050 ,0,0,0.,12.0,0.,12.0,0.,12.0,0.,12.0
1979-07-13 04:50:27.450 ,3,1,0.,12.0,0.,12.0,0.,12.0,0.,12.0
1979-07-13 04:50:39.450 ,3,1,0.,12.0,0.,12.0,0.,12.0,0.,12.0
1979-07-13 04:50:51.450 ,3,0,1.,12.0,0.,12.0,0.,12.0,0.,12.0
1979-07-13 04:51:03.450 ,3,0,0.,12.0,0.,12.0,0.,12.0,0.,12.0
1979-07-13 04:51:15.450 ,4,1,0.,12.0,0.,12.0,0.,12.0,0.,12.0
1979-07-13 04:51:27.450 ,4,1,0.,12.0,0.,12.0,0.,12.0,0.,12.0
1979-07-13 04:51:39.450 ,4,0,0.,12.0,0.,12.0,0.,12.0,0.,12.0
1979-07-13 04:51:51.450 ,4,0,0.,12.0,0.,12.0,0.,12.0,1.,12.0
1979-07-13 04:52:03.450 ,5,1,0.,12.0,0.,12.0,0.,12.0,0.,12.0
1979-07-13 04:52:15.450 ,5,1,0.,12.0,0.,12.0,0.,12.0,0.,12.0
1979-07-13 04:52:27.450 ,5,0,0.,12.0,0.,12.0,0.,12.0,0.,12.0
1979-07-13 04:52:39.450 ,5,0,0.,12.0,0.,12.0,0.,12.0,0.,12.0